GFL64M HKIS-HCMI

Flight info

Callsign GFL64M
Flight time 3h 1m
Altitude 19000
Route AVEDI M997 ETLOT M216 AXAPO
Aircraft BE20/M-VGDW/C

Departure

Time 2026-05-07 18:10
Airport Isiolo Airport (HKIS)

Arrival

Time 2026-05-07 21:11
Airport Berbera Airport (HCMI)
Time Latitude Longitude Altitude Speed Heading
2026-05-07 18:08 0.33625 37.59235 3759 ft 13 kts 73°
2026-05-07 18:08 0.33578 37.59279 3760 ft 15 kts 149°
2026-05-07 18:08 0.33479 37.59338 3759 ft 14 kts 151°
2026-05-07 18:09 0.33369 37.59400 3760 ft 22 kts 149°
2026-05-07 18:09 0.33254 37.59453 3759 ft 6 kts 194°
2026-05-07 18:09 0.33252 37.59471 3759 ft 6 kts 330°
2026-05-07 18:09 0.33253 37.59471 3759 ft 0 kts 329°
2026-05-07 18:10 0.33260 37.59467 3759 ft 13 kts 329°
2026-05-07 18:10 0.33556 37.59293 3760 ft 85 kts 329°
2026-05-07 18:10 0.34230 37.58892 3840 ft 130 kts 329°
2026-05-07 18:10 0.34994 37.58468 4471 ft 120 kts 331°
2026-05-07 18:11 0.35717 37.58063 4967 ft 123 kts 324°
2026-05-07 18:11 0.36222 37.57719 5111 ft 140 kts 327°
2026-05-07 18:11 0.37447 37.57104 5553 ft 157 kts 336°
2026-05-07 18:11 0.38451 37.56601 5962 ft 182 kts 329°
2026-05-07 18:12 0.39191 37.56131 6178 ft 191 kts 327°
2026-05-07 18:12 0.40280 37.55428 6993 ft 182 kts 327°
2026-05-07 18:12 0.41332 37.54752 7769 ft 179 kts 327°
2026-05-07 18:12 0.42462 37.54277 8407 ft 178 kts
2026-05-07 18:13 0.43580 37.54693 9115 ft 173 kts 37°
2026-05-07 18:13 0.44470 37.55497 9824 ft 173 kts 47°
2026-05-07 18:13 0.45337 37.56337 10496 ft 174 kts 44°
2026-05-07 18:13 0.46562 37.57409 11326 ft 178 kts 41°
2026-05-07 18:14 0.47199 37.57948 11794 ft 178 kts 41°
2026-05-07 18:14 0.48153 37.58754 12468 ft 179 kts 43°
2026-05-07 18:14 0.49094 37.59551 13064 ft 181 kts 42°
2026-05-07 18:14 0.50053 37.60366 13689 ft 181 kts 42°
2026-05-07 18:15 0.51018 37.61184 14221 ft 182 kts 43°
2026-05-07 18:15 0.51983 37.62002 14787 ft 182 kts 43°
2026-05-07 18:15 0.52952 37.62823 15302 ft 182 kts 43°
2026-05-07 18:15 0.53919 37.63643 15859 ft 183 kts 43°
2026-05-07 18:16 0.54889 37.64467 16397 ft 182 kts 42°
2026-05-07 18:16 0.55858 37.65289 16935 ft 183 kts 43°
2026-05-07 18:16 0.56831 37.66113 17488 ft 182 kts 43°
2026-05-07 18:16 0.57802 37.66934 18015 ft 184 kts 42°
2026-05-07 18:17 0.58775 37.67762 18536 ft 183 kts 42°
2026-05-07 18:17 0.59750 37.68588 18970 ft 186 kts 43°
2026-05-07 18:17 0.60805 37.69489 18999 ft 211 kts 41°
2026-05-07 18:17 0.61978 37.70483 19010 ft 231 kts 41°
2026-05-07 18:18 0.63245 37.71558 19012 ft 245 kts 41°
2026-05-07 18:18 0.64572 37.72684 19002 ft 254 kts 41°
2026-05-07 18:18 0.65937 37.73841 18994 ft 260 kts 42°
2026-05-07 18:18 0.67307 37.75003 18992 ft 263 kts 42°
2026-05-07 18:19 0.68712 37.76194 18999 ft 267 kts 41°
2026-05-07 18:19 0.70129 37.77398 18996 ft 270 kts 42°
2026-05-07 18:19 0.71549 37.78603 18995 ft 265 kts 42°
2026-05-07 18:19 0.72955 37.79793 18974 ft 265 kts 41°
2026-05-07 18:20 0.74362 37.80985 18978 ft 265 kts 42°
2026-05-07 18:20 0.75767 37.82178 18970 ft 265 kts 42°
2026-05-07 18:20 0.77174 37.83371 18970 ft 265 kts 41°
2026-05-07 18:20 0.78583 37.84566 18971 ft 265 kts 41°
2026-05-07 18:21 0.79992 37.85761 18967 ft 265 kts 42°
2026-05-07 18:21 0.81401 37.86956 18964 ft 265 kts 41°
2026-05-07 18:21 0.82790 37.88134 18967 ft 265 kts 41°
2026-05-07 18:21 0.84198 37.89328 18967 ft 265 kts 42°
2026-05-07 18:22 0.85607 37.90523 18957 ft 265 kts 41°
2026-05-07 18:22 0.86558 37.91328 18951 ft 265 kts 42°
2026-05-07 18:22 0.88426 37.92914 18946 ft 266 kts 41°
2026-05-07 18:22 0.89834 37.94109 18942 ft 265 kts 41°
2026-05-07 18:23 0.91240 37.95302 18945 ft 265 kts 42°
2026-05-07 18:23 0.92651 37.96497 18948 ft 265 kts 41°
2026-05-07 18:23 0.94054 37.97689 18950 ft 265 kts 41°
2026-05-07 18:23 0.95456 37.98883 18952 ft 265 kts 42°
2026-05-07 18:24 0.96866 38.00071 18945 ft 265 kts 41°
2026-05-07 18:24 0.98275 38.01265 18940 ft 265 kts 41°
2026-05-07 18:24 0.99678 38.02458 18933 ft 265 kts 42°
2026-05-07 18:24 1.01083 38.03650 18938 ft 265 kts 42°
2026-05-07 18:25 1.02470 38.04825 18938 ft 265 kts 41°
2026-05-07 18:25 1.03892 38.06031 18938 ft 265 kts 42°
2026-05-07 18:25 1.05300 38.07226 18938 ft 265 kts 41°
2026-05-07 18:25 1.06705 38.08418 18938 ft 265 kts 42°
2026-05-07 18:26 1.08111 38.09611 18939 ft 265 kts 42°
2026-05-07 18:26 1.09501 38.10791 18931 ft 265 kts 41°
2026-05-07 18:26 1.10907 38.11983 18926 ft 265 kts 43°
2026-05-07 18:26 1.12331 38.13190 18931 ft 265 kts 42°
2026-05-07 18:27 1.13737 38.14384 18926 ft 265 kts 41°
2026-05-07 18:27 1.15123 38.15560 18926 ft 265 kts 42°
2026-05-07 18:27 1.16532 38.16755 18920 ft 265 kts 42°
2026-05-07 18:27 1.17937 38.17947 18922 ft 265 kts 41°
2026-05-07 18:28 1.19346 38.19142 18921 ft 265 kts 41°
2026-05-07 18:28 1.20753 38.20336 18914 ft 265 kts 42°
2026-05-07 18:28 1.22164 38.21532 18918 ft 265 kts 41°
2026-05-07 18:28 1.23571 38.22726 18918 ft 265 kts 41°
2026-05-07 18:29 1.24980 38.23922 18922 ft 266 kts 42°
2026-05-07 18:29 1.26387 38.25116 18922 ft 266 kts 41°
2026-05-07 18:29 1.27797 38.26311 18922 ft 266 kts 42°
2026-05-07 18:29 1.29206 38.27507 18922 ft 266 kts 41°
2026-05-07 18:30 1.30615 38.28703 18922 ft 266 kts 41°
2026-05-07 18:30 1.32024 38.29899 18917 ft 266 kts 42°
2026-05-07 18:30 1.33432 38.31093 18917 ft 266 kts 41°
2026-05-07 18:30 1.34842 38.32289 18909 ft 266 kts 41°
2026-05-07 18:31 1.36248 38.33483 18913 ft 265 kts 42°
2026-05-07 18:31 1.37658 38.34679 18914 ft 266 kts 42°
2026-05-07 18:31 1.39068 38.35876 18918 ft 266 kts 41°
2026-05-07 18:31 1.40476 38.37071 18917 ft 266 kts 42°
2026-05-07 18:32 1.41887 38.38268 18913 ft 266 kts 42°
2026-05-07 18:32 1.43296 38.39463 18913 ft 266 kts 41°
2026-05-07 18:32 1.44706 38.40660 18910 ft 266 kts 42°
2026-05-07 18:32 1.46096 38.41840 18913 ft 266 kts 42°
2026-05-07 18:33 1.47506 38.43036 18911 ft 266 kts 41°
2026-05-07 18:33 1.48914 38.44231 18906 ft 266 kts 42°
2026-05-07 18:33 1.50326 38.45430 18910 ft 266 kts 41°
2026-05-07 18:33 1.51737 38.46627 18911 ft 266 kts 42°
2026-05-07 18:34 1.53149 38.47825 18910 ft 266 kts 42°
2026-05-07 18:34 1.54564 38.49027 18911 ft 266 kts 41°
2026-05-07 18:34 1.55977 38.50226 18908 ft 266 kts 42°
2026-05-07 18:34 1.57389 38.51424 18900 ft 266 kts 42°
2026-05-07 18:35 1.58803 38.52624 18911 ft 266 kts 41°
2026-05-07 18:35 1.60212 38.53820 18904 ft 266 kts 41°
2026-05-07 18:35 1.61607 38.55005 18911 ft 266 kts 42°
2026-05-07 18:35 1.63019 38.56203 18904 ft 266 kts 41°
2026-05-07 18:36 1.64433 38.57403 18909 ft 266 kts 41°
2026-05-07 18:36 1.65844 38.58601 18905 ft 266 kts 42°
2026-05-07 18:36 1.67258 38.59801 18909 ft 266 kts 41°
2026-05-07 18:36 1.68670 38.60999 18909 ft 266 kts 41°
2026-05-07 18:37 1.70084 38.62199 18902 ft 266 kts 41°
2026-05-07 18:37 1.71495 38.63397 18906 ft 266 kts 41°
2026-05-07 18:37 1.72905 38.64596 18905 ft 266 kts 42°
2026-05-07 18:37 1.74317 38.65794 18909 ft 266 kts 41°
2026-05-07 18:38 1.75732 38.66994 18906 ft 267 kts 41°
2026-05-07 18:38 1.77147 38.68196 18909 ft 267 kts 42°
2026-05-07 18:38 1.78563 38.69399 18909 ft 267 kts 41°
2026-05-07 18:38 1.79977 38.70599 18908 ft 267 kts 41°
2026-05-07 18:39 1.81387 38.71796 18902 ft 266 kts 42°
2026-05-07 18:39 1.82796 38.72993 18906 ft 266 kts 42°
2026-05-07 18:39 1.84205 38.74189 18905 ft 265 kts 41°
2026-05-07 18:39 1.85612 38.75383 18908 ft 265 kts 41°
2026-05-07 18:40 1.87020 38.76579 18908 ft 265 kts 42°
2026-05-07 18:40 1.88425 38.77772 18904 ft 266 kts 41°
2026-05-07 18:40 1.89834 38.78968 18907 ft 265 kts 42°
2026-05-07 18:40 1.91221 38.80147 18911 ft 265 kts 42°
2026-05-07 18:41 1.92629 38.81342 18911 ft 265 kts 41°
2026-05-07 18:41 1.94036 38.82537 18911 ft 265 kts 42°
2026-05-07 18:41 1.95444 38.83732 18911 ft 265 kts 41°
2026-05-07 18:41 1.96852 38.84928 18907 ft 265 kts 42°
2026-05-07 18:42 1.98255 38.86121 18914 ft 266 kts 42°
2026-05-07 18:42 1.99666 38.87318 18910 ft 265 kts 41°
2026-05-07 18:42 2.01071 38.88511 18915 ft 265 kts 42°
2026-05-07 18:42 2.02479 38.89707 18911 ft 265 kts 42°
2026-05-07 18:43 2.03886 38.90903 18915 ft 265 kts 41°
2026-05-07 18:43 2.05295 38.92099 18916 ft 265 kts 41°
2026-05-07 18:43 2.06702 38.93294 18911 ft 265 kts 41°
2026-05-07 18:43 2.08110 38.94490 18911 ft 265 kts 41°
2026-05-07 18:44 2.09515 38.95684 18916 ft 265 kts 41°
2026-05-07 18:44 2.10921 38.96878 18916 ft 265 kts 41°
2026-05-07 18:44 2.12325 38.98071 18911 ft 265 kts 41°
2026-05-07 18:44 2.13726 38.99261 18919 ft 265 kts 41°
2026-05-07 18:45 2.15130 39.00453 18917 ft 265 kts 41°
2026-05-07 18:45 2.16515 39.01630 18911 ft 265 kts 41°
2026-05-07 18:45 2.17916 39.02821 18913 ft 265 kts 41°
2026-05-07 18:45 2.19320 39.04012 18916 ft 264 kts 41°
2026-05-07 18:46 2.20723 39.05205 18919 ft 265 kts 41°
2026-05-07 18:46 2.22125 39.06396 18919 ft 265 kts 41°
2026-05-07 18:46 2.23527 39.07587 18919 ft 265 kts 41°
2026-05-07 18:46 2.24929 39.08779 18917 ft 265 kts 41°
2026-05-07 18:47 2.26333 39.09971 18924 ft 265 kts 41°
2026-05-07 18:47 2.27735 39.11163 18924 ft 265 kts 41°
2026-05-07 18:47 2.29137 39.12354 18925 ft 265 kts 41°
2026-05-07 18:47 2.30543 39.13548 18917 ft 265 kts 41°
2026-05-07 18:48 2.31945 39.14740 18925 ft 264 kts 41°
2026-05-07 18:48 2.33347 39.15933 18925 ft 265 kts 41°
2026-05-07 18:48 2.34749 39.17123 18925 ft 265 kts 41°
2026-05-07 18:48 2.36154 39.18317 18925 ft 264 kts 41°
2026-05-07 18:49 2.37555 39.19507 18928 ft 264 kts 41°
2026-05-07 18:49 2.38955 39.20698 18929 ft 264 kts 41°
2026-05-07 18:49 2.40352 39.21885 18929 ft 264 kts 41°
2026-05-07 18:49 2.41752 39.23074 18924 ft 264 kts 41°
2026-05-07 18:50 2.43153 39.24266 18929 ft 264 kts 41°
2026-05-07 18:50 2.44552 39.25455 18921 ft 264 kts 41°
2026-05-07 18:50 2.45950 39.26644 18924 ft 264 kts 41°
2026-05-07 18:50 2.47347 39.27831 18929 ft 264 kts 41°
2026-05-07 18:51 2.48747 39.29020 18933 ft 264 kts 41°
2026-05-07 18:51 2.50128 39.30195 18930 ft 264 kts 41°
2026-05-07 18:51 2.51524 39.31381 18934 ft 264 kts 41°
2026-05-07 18:51 2.52921 39.32569 18934 ft 264 kts 41°
2026-05-07 18:52 2.54321 39.33759 18937 ft 264 kts 41°
2026-05-07 18:52 2.55718 39.34947 18937 ft 264 kts 41°
2026-05-07 18:52 2.57116 39.36136 18931 ft 264 kts 41°
2026-05-07 18:52 2.58515 39.37326 18937 ft 264 kts 41°
2026-05-07 18:53 2.59917 39.38517 18938 ft 264 kts 41°
2026-05-07 18:53 2.61317 39.39707 18937 ft 264 kts 41°
2026-05-07 18:53 2.62713 39.40895 18940 ft 264 kts 41°
2026-05-07 18:53 2.64112 39.42084 18940 ft 264 kts 41°
2026-05-07 18:54 2.65512 39.43275 18933 ft 264 kts 41°
2026-05-07 18:54 2.66912 39.44465 18942 ft 264 kts 41°
2026-05-07 18:54 2.68312 39.45656 18939 ft 264 kts 41°
2026-05-07 18:54 2.69710 39.46845 18942 ft 264 kts 41°
2026-05-07 18:55 2.71109 39.48035 18948 ft 264 kts 41°
2026-05-07 18:55 2.72507 39.49224 18949 ft 264 kts 41°
2026-05-07 18:55 2.73906 39.50413 18942 ft 264 kts 41°
2026-05-07 18:55 2.75308 39.51606 18944 ft 264 kts 41°
2026-05-07 18:56 2.76706 39.52795 18948 ft 264 kts 41°
2026-05-07 18:56 2.78109 39.53989 18939 ft 264 kts 41°
2026-05-07 18:56 2.79490 39.55163 18948 ft 264 kts 41°
2026-05-07 18:56 2.80907 39.56369 18949 ft 264 kts 41°
2026-05-07 18:57 2.82307 39.57560 18944 ft 264 kts 41°
2026-05-07 18:57 2.83688 39.58734 18951 ft 264 kts 41°
2026-05-07 18:57 2.85088 39.59925 18951 ft 264 kts 41°
2026-05-07 18:57 2.86506 39.61132 18951 ft 264 kts 41°
2026-05-07 18:58 2.87889 39.62309 18944 ft 264 kts 41°
2026-05-07 18:58 2.89292 39.63503 18948 ft 264 kts 41°
2026-05-07 18:58 2.90691 39.64692 18948 ft 264 kts 41°
2026-05-07 18:58 2.92095 39.65887 18949 ft 264 kts 41°
2026-05-07 18:59 2.93498 39.67081 18954 ft 264 kts 41°
2026-05-07 18:59 2.94426 39.67870 18954 ft 264 kts 41°
2026-05-07 18:59 2.95828 39.69064 18951 ft 265 kts 41°
2026-05-07 18:59 2.97228 39.70255 18954 ft 264 kts 41°
2026-05-07 19:00 2.98634 39.71451 18954 ft 265 kts 41°
2026-05-07 19:00 3.00490 39.73031 18954 ft 265 kts 41°
2026-05-07 19:00 3.01892 39.74225 18948 ft 264 kts 41°
2026-05-07 19:00 3.02840 39.75031 18954 ft 265 kts 41°
2026-05-07 19:01 3.04244 39.76226 18954 ft 265 kts 41°
2026-05-07 19:01 3.05643 39.77417 18962 ft 264 kts 41°
2026-05-07 19:01 3.07047 39.78612 18962 ft 265 kts 41°
2026-05-07 19:01 3.08450 39.79806 18956 ft 264 kts 41°
2026-05-07 19:02 3.09849 39.80997 18962 ft 264 kts 41°
2026-05-07 19:02 3.11233 39.82175 18962 ft 265 kts 41°
2026-05-07 19:02 3.12635 39.83369 18962 ft 265 kts 41°
2026-05-07 19:02 3.14038 39.84564 18959 ft 265 kts 41°
2026-05-07 19:03 3.15441 39.85758 18962 ft 265 kts 41°
2026-05-07 19:03 3.16840 39.86949 18966 ft 265 kts 41°
2026-05-07 19:03 3.18247 39.88147 18968 ft 265 kts 41°
2026-05-07 19:03 3.19650 39.89342 18965 ft 265 kts 41°
2026-05-07 19:04 3.21054 39.90537 18962 ft 265 kts 41°
2026-05-07 19:04 3.22458 39.91733 18966 ft 265 kts 41°
2026-05-07 19:04 3.23864 39.92930 18961 ft 265 kts 41°
2026-05-07 19:04 3.25265 39.94124 18963 ft 265 kts 41°
2026-05-07 19:05 3.26654 39.95306 18963 ft 265 kts 41°
2026-05-07 19:05 3.28058 39.96502 18960 ft 265 kts 41°
2026-05-07 19:05 3.29464 39.97700 18963 ft 265 kts 41°
2026-05-07 19:05 3.30868 39.98895 18965 ft 265 kts 41°
2026-05-07 19:06 3.32271 40.00090 18968 ft 265 kts 40°
2026-05-07 19:06 3.35081 40.02484 18966 ft 265 kts 40°
2026-05-07 19:06 3.36485 40.03680 18966 ft 265 kts 40°
2026-05-07 19:07 3.37891 40.04877 18964 ft 265 kts 41°
2026-05-07 19:07 3.39294 40.06073 18961 ft 265 kts 40°
2026-05-07 19:07 3.40697 40.07268 18964 ft 265 kts 40°
2026-05-07 19:07 3.42099 40.08463 18961 ft 265 kts 41°
2026-05-07 19:08 3.43500 40.09656 18966 ft 265 kts 41°
2026-05-07 19:08 3.44905 40.10854 18962 ft 265 kts 40°
2026-05-07 19:08 3.46310 40.12051 18966 ft 265 kts 41°
2026-05-07 19:08 3.47710 40.13243 18962 ft 265 kts 40°
2026-05-07 19:09 3.49112 40.14438 18969 ft 265 kts 40°
2026-05-07 19:09 3.50498 40.15620 18962 ft 264 kts 40°
2026-05-07 19:09 3.51897 40.16812 18965 ft 264 kts 40°
2026-05-07 19:09 3.53295 40.18003 18968 ft 264 kts 40°
2026-05-07 19:10 3.54693 40.19195 18959 ft 264 kts 40°
2026-05-07 19:10 3.56090 40.20386 18967 ft 264 kts 40°
2026-05-07 19:10 3.57486 40.21576 18967 ft 264 kts 40°
2026-05-07 19:10 3.58883 40.22766 18967 ft 264 kts 40°
2026-05-07 19:11 3.60280 40.23957 18970 ft 264 kts 40°
2026-05-07 19:11 3.61676 40.25148 18967 ft 264 kts 40°
2026-05-07 19:11 3.63073 40.26339 18975 ft 264 kts 40°
2026-05-07 19:11 3.64471 40.27530 18972 ft 264 kts 40°
2026-05-07 19:12 3.65867 40.28720 18967 ft 264 kts 40°
2026-05-07 19:12 3.67261 40.29909 18975 ft 264 kts 40°
2026-05-07 19:12 3.68657 40.31100 18975 ft 264 kts 40°
2026-05-07 19:12 3.70054 40.32291 18966 ft 264 kts 40°
2026-05-07 19:13 3.71451 40.33482 18964 ft 264 kts 40°
2026-05-07 19:13 3.72852 40.34676 18981 ft 264 kts 40°
2026-05-07 19:13 3.74252 40.35871 18980 ft 264 kts 40°
2026-05-07 19:13 3.75650 40.37063 18976 ft 264 kts 40°
2026-05-07 19:14 3.77046 40.38253 18981 ft 264 kts 40°
2026-05-07 19:14 3.78443 40.39445 18976 ft 264 kts 40°
2026-05-07 19:14 3.79839 40.40636 18973 ft 264 kts 40°
2026-05-07 19:14 3.81236 40.41827 18972 ft 264 kts 40°
2026-05-07 19:15 3.82635 40.43021 18970 ft 264 kts 40°
2026-05-07 19:15 3.84031 40.44212 18973 ft 264 kts 40°
2026-05-07 19:15 3.85426 40.45402 18978 ft 264 kts 40°
2026-05-07 19:15 3.86826 40.46596 18975 ft 264 kts 40°
2026-05-07 19:16 3.88220 40.47786 18980 ft 264 kts 40°
2026-05-07 19:16 3.89601 40.48964 18979 ft 264 kts 40°
2026-05-07 19:16 3.91001 40.50158 18977 ft 264 kts 40°
2026-05-07 19:16 3.92395 40.51348 18980 ft 264 kts 40°
2026-05-07 19:17 3.93793 40.52540 18979 ft 264 kts 40°
2026-05-07 19:17 3.95191 40.53734 18973 ft 264 kts 40°
2026-05-07 19:17 3.96590 40.54928 18981 ft 264 kts 40°
2026-05-07 19:17 3.97987 40.56120 18978 ft 264 kts 40°
2026-05-07 19:18 3.99385 40.57311 18972 ft 263 kts 39°
2026-05-07 19:18 4.00964 40.58194 18975 ft 262 kts 17°
2026-05-07 19:18 4.02732 40.58615 18980 ft 261 kts 12°
2026-05-07 19:18 4.04491 40.58990 18983 ft 262 kts 12°
2026-05-07 19:19 4.06276 40.59376 18985 ft 263 kts 12°
2026-05-07 19:19 4.08063 40.59771 18986 ft 263 kts 13°
2026-05-07 19:19 4.09856 40.60168 18987 ft 264 kts 13°
2026-05-07 19:19 4.11647 40.60563 18986 ft 264 kts 12°
2026-05-07 19:20 4.13438 40.60956 18987 ft 264 kts 12°
2026-05-07 19:20 4.15235 40.61351 18987 ft 264 kts 13°
2026-05-07 19:20 4.17026 40.61746 18988 ft 264 kts 13°
2026-05-07 19:20 4.18820 40.62141 18988 ft 264 kts 13°
2026-05-07 19:21 4.20612 40.62535 18988 ft 264 kts 13°
2026-05-07 19:21 4.22405 40.62930 18988 ft 264 kts 12°
2026-05-07 19:21 4.24200 40.63326 18988 ft 264 kts 12°
2026-05-07 19:21 4.25991 40.63720 18988 ft 264 kts 12°
2026-05-07 19:22 4.27787 40.64116 18990 ft 264 kts 12°
2026-05-07 19:22 4.29584 40.64511 18989 ft 264 kts 12°
2026-05-07 19:22 4.31375 40.64906 18988 ft 264 kts 12°
2026-05-07 19:22 4.33168 40.65301 18981 ft 264 kts 12°
2026-05-07 19:23 4.34966 40.65697 18982 ft 264 kts 13°
2026-05-07 19:23 4.36738 40.66087 18982 ft 264 kts 12°
2026-05-07 19:23 4.38535 40.66483 18981 ft 264 kts 13°
2026-05-07 19:23 4.40331 40.66879 18987 ft 264 kts 12°
2026-05-07 19:24 4.42126 40.67274 18987 ft 264 kts 12°
2026-05-07 19:24 4.43923 40.67670 18987 ft 264 kts 12°
2026-05-07 19:24 4.45719 40.68066 18987 ft 264 kts 12°
2026-05-07 19:24 4.47518 40.68462 18988 ft 264 kts 12°
2026-05-07 19:25 4.49313 40.68858 18987 ft 264 kts 12°
2026-05-07 19:25 4.51112 40.69254 18992 ft 264 kts 12°
2026-05-07 19:25 4.52909 40.69650 18992 ft 264 kts 12°
2026-05-07 19:25 4.54706 40.70046 18993 ft 264 kts 12°
2026-05-07 19:26 4.56499 40.70441 18989 ft 264 kts 12°
2026-05-07 19:26 4.58297 40.70837 18988 ft 264 kts 12°
2026-05-07 19:26 4.60093 40.71233 18988 ft 264 kts 12°
2026-05-07 19:26 4.61889 40.71630 18989 ft 264 kts 12°
2026-05-07 19:27 4.63688 40.72026 18988 ft 264 kts 13°
2026-05-07 19:27 4.65488 40.72423 18989 ft 264 kts 13°
2026-05-07 19:27 4.67262 40.72814 18988 ft 264 kts 13°
2026-05-07 19:27 4.69061 40.73211 18993 ft 264 kts 13°
2026-05-07 19:28 4.70858 40.73607 18995 ft 264 kts 13°
2026-05-07 19:28 4.72656 40.74003 18993 ft 264 kts 13°
2026-05-07 19:28 4.74459 40.74402 18998 ft 264 kts 13°
2026-05-07 19:28 4.76257 40.74799 18998 ft 264 kts 13°
2026-05-07 19:29 4.78052 40.75196 19001 ft 264 kts 13°
2026-05-07 19:29 4.79849 40.75593 19001 ft 264 kts 13°
2026-05-07 19:29 4.81651 40.75991 19001 ft 264 kts 13°
2026-05-07 19:29 4.83448 40.76388 19001 ft 264 kts 13°
2026-05-07 19:30 4.85244 40.76785 19004 ft 264 kts 13°
2026-05-07 19:30 4.87043 40.77183 19004 ft 264 kts 13°
2026-05-07 19:30 4.88817 40.77575 19003 ft 264 kts 13°
2026-05-07 19:30 4.90616 40.77972 19004 ft 264 kts 13°
2026-05-07 19:31 4.92416 40.78370 19001 ft 264 kts 13°
2026-05-07 19:31 4.94213 40.78768 19002 ft 264 kts 13°
2026-05-07 19:31 4.96009 40.79165 19002 ft 264 kts 13°
2026-05-07 19:31 4.97808 40.79562 19004 ft 264 kts 13°
2026-05-07 19:32 4.99604 40.79959 19007 ft 264 kts 13°
2026-05-07 19:32 5.01403 40.80357 19006 ft 265 kts 13°
2026-05-07 19:32 5.03199 40.80754 19007 ft 265 kts 13°
2026-05-07 19:32 5.04998 40.81152 19007 ft 265 kts 13°
2026-05-07 19:33 5.06794 40.81549 19007 ft 265 kts 13°
2026-05-07 19:33 5.08590 40.81946 19007 ft 265 kts 13°
2026-05-07 19:33 5.10388 40.82344 19007 ft 265 kts 13°
2026-05-07 19:33 5.12184 40.82742 19006 ft 265 kts 13°
2026-05-07 19:34 5.13986 40.83140 19008 ft 265 kts 13°
2026-05-07 19:34 5.15783 40.83538 19007 ft 265 kts 13°
2026-05-07 19:34 5.17579 40.83935 19008 ft 265 kts 13°
2026-05-07 19:34 5.19379 40.84333 19004 ft 265 kts 13°
2026-05-07 19:35 5.21176 40.84731 19002 ft 264 kts 13°
2026-05-07 19:35 5.22973 40.85129 19002 ft 264 kts 13°
2026-05-07 19:35 5.24767 40.85527 18997 ft 264 kts 13°
2026-05-07 19:35 5.26561 40.85925 19003 ft 264 kts 13°
2026-05-07 19:36 5.28360 40.86323 18997 ft 264 kts 13°
2026-05-07 19:36 5.30132 40.86716 18992 ft 264 kts 13°
2026-05-07 19:36 5.31929 40.87115 18997 ft 264 kts 13°
2026-05-07 19:36 5.33725 40.87513 18996 ft 264 kts 13°
2026-05-07 19:37 5.35520 40.87911 18994 ft 264 kts 13°
2026-05-07 19:37 5.37317 40.88310 18997 ft 264 kts 13°
2026-05-07 19:37 5.39110 40.88707 18997 ft 264 kts 13°
2026-05-07 19:37 5.40908 40.89107 18997 ft 264 kts 13°
2026-05-07 19:38 5.42705 40.89505 18989 ft 264 kts 13°
2026-05-07 19:38 5.44501 40.89904 18986 ft 264 kts 13°
2026-05-07 19:38 5.46301 40.90302 18986 ft 265 kts 13°
2026-05-07 19:38 5.48099 40.90702 18993 ft 265 kts 13°
2026-05-07 19:39 5.49898 40.91101 18990 ft 265 kts 13°
2026-05-07 19:39 5.51694 40.91500 18978 ft 264 kts 13°
2026-05-07 19:39 5.53488 40.91897 18973 ft 263 kts 13°
2026-05-07 19:39 5.54677 40.92161 18967 ft 264 kts 13°
2026-05-07 19:40 5.57072 40.92693 18976 ft 264 kts 13°
2026-05-07 19:40 5.58861 40.93090 18973 ft 263 kts 13°
2026-05-07 19:40 5.60649 40.93487 18975 ft 263 kts 13°
2026-05-07 19:40 5.62416 40.93879 18975 ft 263 kts 13°
2026-05-07 19:41 5.64227 40.94281 18976 ft 263 kts 13°
2026-05-07 19:41 5.65995 40.94673 18970 ft 263 kts 13°
2026-05-07 19:41 5.67779 40.95069 18975 ft 263 kts 13°
2026-05-07 19:41 5.69570 40.95467 18975 ft 263 kts 13°
2026-05-07 19:42 5.71355 40.95864 18976 ft 263 kts 13°
2026-05-07 19:42 5.73144 40.96261 18977 ft 263 kts 13°
2026-05-07 19:42 5.74935 40.96658 18972 ft 263 kts 13°
2026-05-07 19:42 5.76728 40.97057 18971 ft 264 kts 13°
2026-05-07 19:43 5.78519 40.97454 18974 ft 264 kts 13°
2026-05-07 19:43 5.80309 40.97852 18965 ft 264 kts 13°
2026-05-07 19:43 5.82100 40.98250 18974 ft 264 kts 13°
2026-05-07 19:43 5.83898 40.98649 18966 ft 264 kts 13°
2026-05-07 19:44 5.85695 40.99048 18969 ft 264 kts 13°
2026-05-07 19:44 5.87491 40.99447 18968 ft 264 kts 13°
2026-05-07 19:44 5.89283 40.99846 18973 ft 264 kts 13°
2026-05-07 19:44 5.90471 41.00110 18973 ft 264 kts 13°
2026-05-07 19:45 5.92873 41.00644 18970 ft 264 kts 13°
2026-05-07 19:45 5.94063 41.00908 18970 ft 264 kts 13°
2026-05-07 19:45 5.95856 41.01306 18969 ft 264 kts 13°
2026-05-07 19:45 5.98235 41.01836 18972 ft 264 kts 13°
2026-05-07 19:46 5.99424 41.02100 18971 ft 264 kts 13°
2026-05-07 19:46 6.01217 41.02498 18975 ft 264 kts 13°
2026-05-07 19:46 6.03015 41.02898 18968 ft 264 kts 13°
2026-05-07 19:46 6.04806 41.03296 18973 ft 264 kts 13°
2026-05-07 19:47 6.06602 41.03695 18973 ft 264 kts 13°
2026-05-07 19:47 6.08393 41.04093 18968 ft 264 kts 13°
2026-05-07 19:47 6.10188 41.04493 18981 ft 264 kts 13°
2026-05-07 19:47 6.11981 41.04891 18978 ft 264 kts 13°
2026-05-07 19:48 6.13774 41.05290 18982 ft 264 kts 13°
2026-05-07 19:48 6.15571 41.05690 18982 ft 264 kts 13°
2026-05-07 19:48 6.17365 41.06089 18982 ft 264 kts 13°
2026-05-07 19:48 6.19164 41.06489 18982 ft 264 kts 13°
2026-05-07 19:49 6.20959 41.06888 18987 ft 264 kts 13°
2026-05-07 19:49 6.22755 41.07288 18986 ft 264 kts 13°
2026-05-07 19:49 6.24559 41.07689 18987 ft 264 kts 13°
2026-05-07 19:49 6.26352 41.08088 18982 ft 264 kts 13°
2026-05-07 19:50 6.28148 41.08488 18987 ft 264 kts 13°
2026-05-07 19:50 6.29943 41.08887 18981 ft 264 kts 13°
2026-05-07 19:50 6.31736 41.09286 18987 ft 264 kts 13°
2026-05-07 19:50 6.33510 41.09681 18984 ft 264 kts 13°
2026-05-07 19:51 6.35304 41.10080 18984 ft 265 kts 13°
2026-05-07 19:51 6.37102 41.10481 18984 ft 265 kts 13°
2026-05-07 19:51 6.38903 41.10882 18980 ft 265 kts 13°
2026-05-07 19:51 6.40699 41.11282 18985 ft 265 kts 13°
2026-05-07 19:52 6.42501 41.11683 18993 ft 265 kts 13°
2026-05-07 19:52 6.44296 41.12083 18993 ft 265 kts 13°
2026-05-07 19:52 6.46097 41.12483 18992 ft 265 kts 13°
2026-05-07 19:52 6.47896 41.12884 18993 ft 265 kts 13°
2026-05-07 19:53 6.49693 41.13284 18993 ft 265 kts 13°
2026-05-07 19:53 6.51491 41.13685 18993 ft 264 kts 13°
2026-05-07 19:53 6.53291 41.14087 18992 ft 264 kts 13°
2026-05-07 19:53 6.55062 41.14484 18996 ft 264 kts 13°
2026-05-07 19:54 6.56856 41.14886 18996 ft 264 kts 13°
2026-05-07 19:54 6.58650 41.15287 18996 ft 264 kts 13°
2026-05-07 19:54 6.60446 41.15688 18997 ft 264 kts 13°
2026-05-07 19:54 6.62238 41.16090 18996 ft 264 kts 13°
2026-05-07 19:55 6.64028 41.16490 18994 ft 263 kts 13°
2026-05-07 19:55 6.65819 41.16890 18999 ft 263 kts 13°
2026-05-07 19:55 6.67604 41.17290 18996 ft 263 kts 13°
2026-05-07 19:55 6.69393 41.17690 18991 ft 263 kts 13°
2026-05-07 19:56 6.71183 41.18091 18994 ft 263 kts 13°
2026-05-07 19:56 6.72970 41.18491 18993 ft 263 kts 13°
2026-05-07 19:56 6.74758 41.18891 18993 ft 263 kts 13°
2026-05-07 19:56 6.76545 41.19291 18986 ft 263 kts 13°
2026-05-07 19:57 6.78332 41.19691 18990 ft 263 kts 13°
2026-05-07 19:57 6.80117 41.20091 18994 ft 263 kts 13°
2026-05-07 19:57 6.81909 41.20492 18995 ft 263 kts 13°
2026-05-07 19:57 6.83696 41.20892 18996 ft 263 kts 13°
2026-05-07 19:58 6.85463 41.21288 18988 ft 263 kts 13°
2026-05-07 19:58 6.87251 41.21689 18996 ft 263 kts 13°
2026-05-07 19:58 6.89034 41.22088 18999 ft 262 kts 13°
2026-05-07 19:58 6.90817 41.22487 19000 ft 262 kts 13°
2026-05-07 19:59 6.92600 41.22887 19000 ft 262 kts 13°
2026-05-07 19:59 6.94376 41.23285 19000 ft 262 kts 13°
2026-05-07 19:59 6.96157 41.23684 18994 ft 262 kts 13°
2026-05-07 19:59 6.97937 41.24082 19000 ft 262 kts 13°
2026-05-07 20:00 6.99717 41.24481 18997 ft 262 kts 13°
2026-05-07 20:00 7.01497 41.24880 19000 ft 262 kts 13°
2026-05-07 20:00 7.03276 41.25279 19000 ft 262 kts 13°
2026-05-07 20:00 7.05052 41.25677 19000 ft 262 kts 13°
2026-05-07 20:01 7.06830 41.26076 18995 ft 262 kts 13°
2026-05-07 20:01 7.08609 41.26474 18994 ft 262 kts 13°
2026-05-07 20:01 7.10389 41.26873 18988 ft 262 kts 13°
2026-05-07 20:01 7.12172 41.27273 18995 ft 262 kts 13°
2026-05-07 20:02 7.13952 41.27672 18988 ft 262 kts 13°
2026-05-07 20:02 7.15737 41.28073 18991 ft 262 kts 13°
2026-05-07 20:02 7.17522 41.28473 18986 ft 262 kts 13°
2026-05-07 20:02 7.19305 41.28873 18991 ft 263 kts 13°
2026-05-07 20:03 7.21093 41.29273 18992 ft 263 kts 13°
2026-05-07 20:03 7.22877 41.29675 18992 ft 262 kts 14°
2026-05-07 20:03 7.24511 41.30374 18986 ft 260 kts 35°
2026-05-07 20:03 7.25800 41.31641 18989 ft 259 kts 50°
2026-05-07 20:04 7.26954 41.33044 18999 ft 261 kts 50°
2026-05-07 20:04 7.28108 41.34455 18999 ft 261 kts 50°
2026-05-07 20:04 7.29273 41.35864 18983 ft 262 kts 50°
2026-05-07 20:04 7.30447 41.37279 18984 ft 263 kts 50°
2026-05-07 20:05 7.31615 41.38691 18992 ft 263 kts 50°
2026-05-07 20:05 7.32785 41.40107 18992 ft 263 kts 50°
2026-05-07 20:05 7.33959 41.41527 18992 ft 263 kts 50°
2026-05-07 20:05 7.35130 41.42942 18993 ft 263 kts 50°
2026-05-07 20:06 7.36300 41.44358 18984 ft 263 kts 50°
2026-05-07 20:06 7.37475 41.45779 18984 ft 263 kts 50°
2026-05-07 20:06 7.38645 41.47195 18983 ft 263 kts 50°
2026-05-07 20:06 7.39820 41.48617 18983 ft 263 kts 50°
2026-05-07 20:07 7.40991 41.50033 18988 ft 264 kts 50°
2026-05-07 20:07 7.42166 41.51455 18988 ft 264 kts 50°
2026-05-07 20:07 7.43326 41.52859 18983 ft 264 kts 50°
2026-05-07 20:07 7.44500 41.54280 18983 ft 264 kts 50°
2026-05-07 20:08 7.45671 41.55699 18983 ft 264 kts 50°
2026-05-07 20:08 7.46849 41.57124 18984 ft 264 kts 50°
2026-05-07 20:08 7.48022 41.58544 18984 ft 264 kts 50°
2026-05-07 20:08 7.49200 41.59970 18982 ft 264 kts 50°
2026-05-07 20:09 7.50375 41.61393 18974 ft 264 kts 50°
2026-05-07 20:09 7.51547 41.62813 18974 ft 264 kts 50°
2026-05-07 20:09 7.52722 41.64236 18969 ft 264 kts 50°
2026-05-07 20:10 7.55073 41.67084 18973 ft 264 kts 50°
2026-05-07 20:10 7.56248 41.68507 18973 ft 264 kts 50°
2026-05-07 20:10 7.57421 41.69928 18974 ft 264 kts 50°
2026-05-07 20:10 7.58598 41.71354 18973 ft 264 kts 50°
2026-05-07 20:11 7.59773 41.72779 18974 ft 264 kts 50°
2026-05-07 20:11 7.60948 41.74202 18980 ft 264 kts 50°
2026-05-07 20:11 7.62125 41.75629 18979 ft 264 kts 50°
2026-05-07 20:11 7.63301 41.77054 18979 ft 264 kts 50°
2026-05-07 20:12 7.64477 41.78481 18975 ft 264 kts 50°
2026-05-07 20:12 7.65651 41.79903 18965 ft 264 kts 50°
2026-05-07 20:12 7.66809 41.81308 18974 ft 263 kts 50°
2026-05-07 20:12 7.67978 41.82726 18973 ft 263 kts 50°
2026-05-07 20:13 7.69149 41.84145 18971 ft 263 kts 50°
2026-05-07 20:13 7.70322 41.85569 18977 ft 263 kts 50°
2026-05-07 20:13 7.71491 41.86990 18968 ft 263 kts 50°
2026-05-07 20:13 7.72659 41.88411 18959 ft 263 kts 50°
2026-05-07 20:14 7.73826 41.89830 18968 ft 263 kts 50°
2026-05-07 20:14 7.74994 41.91250 18964 ft 263 kts 50°
2026-05-07 20:14 7.76160 41.92668 18968 ft 263 kts 50°
2026-05-07 20:14 7.77312 41.94069 18959 ft 263 kts 50°
2026-05-07 20:15 7.78479 41.95488 18961 ft 263 kts 50°
2026-05-07 20:15 7.79648 41.96910 18973 ft 263 kts 50°
2026-05-07 20:15 7.80818 41.98334 18973 ft 263 kts 50°
2026-05-07 20:15 7.81985 41.99753 18973 ft 263 kts 50°
2026-05-07 20:16 7.83153 42.01174 18973 ft 263 kts 50°
2026-05-07 20:16 7.84325 42.02601 18973 ft 264 kts 50°
2026-05-07 20:16 7.85495 42.04024 18971 ft 264 kts 50°
2026-05-07 20:16 7.86665 42.05449 18971 ft 264 kts 50°
2026-05-07 20:17 7.87835 42.06873 18971 ft 264 kts 50°
2026-05-07 20:17 7.89007 42.08300 18969 ft 264 kts 50°
2026-05-07 20:17 7.90177 42.09724 18974 ft 263 kts 50°
2026-05-07 20:17 7.91346 42.11148 18974 ft 263 kts 50°
2026-05-07 20:18 7.92499 42.12552 18976 ft 263 kts 50°
2026-05-07 20:18 7.93669 42.13976 18976 ft 263 kts 50°
2026-05-07 20:18 7.94840 42.15402 18976 ft 263 kts 50°
2026-05-07 20:18 7.96005 42.16821 18976 ft 263 kts 50°
2026-05-07 20:19 7.97176 42.18248 18973 ft 263 kts 50°
2026-05-07 20:19 7.98345 42.19673 18973 ft 263 kts 50°
2026-05-07 20:19 7.99513 42.21095 18967 ft 263 kts 50°
2026-05-07 20:19 8.00680 42.22517 18970 ft 263 kts 50°
2026-05-07 20:20 8.01832 42.23921 18975 ft 263 kts 50°
2026-05-07 20:20 8.02997 42.25340 18972 ft 263 kts 50°
2026-05-07 20:20 8.04163 42.26763 18970 ft 263 kts 50°
2026-05-07 20:20 8.05330 42.28185 18976 ft 263 kts 50°
2026-05-07 20:21 8.06495 42.29604 18973 ft 263 kts 50°
2026-05-07 20:21 8.07660 42.31026 18978 ft 263 kts 50°
2026-05-07 20:21 8.08825 42.32445 18979 ft 263 kts 50°
2026-05-07 20:21 8.09991 42.33868 18984 ft 263 kts 50°
2026-05-07 20:22 8.11158 42.35291 18984 ft 263 kts 50°
2026-05-07 20:22 8.12325 42.36715 18985 ft 263 kts 50°
2026-05-07 20:22 8.13490 42.38136 18985 ft 263 kts 50°
2026-05-07 20:22 8.14656 42.39558 18985 ft 263 kts 50°
2026-05-07 20:23 8.15823 42.40982 18980 ft 263 kts 50°
2026-05-07 20:23 8.16987 42.42403 18986 ft 262 kts 50°
2026-05-07 20:23 8.18152 42.43824 18992 ft 262 kts 50°
2026-05-07 20:23 8.19297 42.45222 18991 ft 262 kts 50°
2026-05-07 20:24 8.20471 42.46655 18989 ft 262 kts 51°
2026-05-07 20:24 8.21618 42.48055 18990 ft 262 kts 50°
2026-05-07 20:24 8.22779 42.49472 18989 ft 262 kts 50°
2026-05-07 20:24 8.23935 42.50886 18989 ft 261 kts 51°
2026-05-07 20:25 8.25094 42.52303 18987 ft 262 kts 51°
2026-05-07 20:25 8.26253 42.53720 18983 ft 262 kts 51°
2026-05-07 20:25 8.27412 42.55137 18987 ft 262 kts 51°
2026-05-07 20:25 8.28572 42.56556 18986 ft 262 kts 51°
2026-05-07 20:26 8.29730 42.57972 18990 ft 262 kts 51°
2026-05-07 20:26 8.30889 42.59390 18989 ft 262 kts 51°
2026-05-07 20:26 8.32051 42.60811 18986 ft 262 kts 51°
2026-05-07 20:26 8.33212 42.62231 18991 ft 262 kts 50°
2026-05-07 20:27 8.34368 42.63647 18987 ft 261 kts 50°
2026-05-07 20:27 8.35524 42.65061 18989 ft 261 kts 50°
2026-05-07 20:27 8.36681 42.66476 18994 ft 261 kts 50°
2026-05-07 20:27 8.37839 42.67894 18992 ft 262 kts 50°
2026-05-07 20:28 8.38984 42.69296 18998 ft 262 kts 50°
2026-05-07 20:28 8.40145 42.70717 18999 ft 262 kts 50°
2026-05-07 20:28 8.41306 42.72138 18998 ft 262 kts 50°
2026-05-07 20:28 8.42466 42.73559 18998 ft 262 kts 50°
2026-05-07 20:29 8.43626 42.74980 18999 ft 262 kts 50°
2026-05-07 20:29 8.44788 42.76403 18999 ft 262 kts 50°
2026-05-07 20:29 8.45949 42.77825 18999 ft 262 kts 50°
2026-05-07 20:29 8.47109 42.79246 19002 ft 262 kts 50°
2026-05-07 20:30 8.48273 42.80672 19001 ft 262 kts 50°
2026-05-07 20:30 8.49434 42.82094 19001 ft 262 kts 50°
2026-05-07 20:30 8.50592 42.83514 18998 ft 262 kts 50°
2026-05-07 20:30 8.51751 42.84934 19001 ft 262 kts 50°
2026-05-07 20:31 8.52909 42.86353 18999 ft 262 kts 50°
2026-05-07 20:31 8.54070 42.87777 18999 ft 262 kts 50°
2026-05-07 20:31 8.55228 42.89195 18999 ft 262 kts 50°
2026-05-07 20:31 8.56389 42.90619 19004 ft 262 kts 50°
2026-05-07 20:32 8.57549 42.92042 19002 ft 262 kts 50°
2026-05-07 20:32 8.58708 42.93463 19003 ft 262 kts 50°
2026-05-07 20:32 8.59867 42.94885 19005 ft 262 kts 50°
2026-05-07 20:32 8.61027 42.96307 19004 ft 262 kts 50°
2026-05-07 20:33 8.61795 42.97249 19003 ft 262 kts 50°
2026-05-07 20:33 8.62952 42.98671 19005 ft 262 kts 50°
2026-05-07 20:33 8.64505 43.00575 19006 ft 262 kts 50°
2026-05-07 20:33 8.65272 43.01515 19011 ft 262 kts 50°
2026-05-07 20:34 8.66430 43.02935 19014 ft 262 kts 50°
2026-05-07 20:34 8.67585 43.04353 19016 ft 261 kts 50°
2026-05-07 20:34 8.68740 43.05772 19015 ft 261 kts 50°
2026-05-07 20:34 8.69895 43.07189 19015 ft 261 kts 50°
2026-05-07 20:35 8.71050 43.08607 19012 ft 261 kts 50°
2026-05-07 20:35 8.72203 43.10023 19012 ft 261 kts 50°
2026-05-07 20:35 8.73356 43.11439 19013 ft 261 kts 50°
2026-05-07 20:35 8.74510 43.12856 19021 ft 261 kts 50°
2026-05-07 20:36 8.75666 43.14275 19021 ft 261 kts 50°
2026-05-07 20:36 8.76819 43.15692 19020 ft 261 kts 50°
2026-05-07 20:36 8.77974 43.17112 19021 ft 261 kts 50°
2026-05-07 20:36 8.79128 43.18529 19021 ft 261 kts 50°
2026-05-07 20:37 8.80281 43.19946 19021 ft 261 kts 50°
2026-05-07 20:37 8.81434 43.21362 19024 ft 261 kts 50°
2026-05-07 20:37 8.82589 43.22783 19025 ft 261 kts 50°
2026-05-07 20:37 8.83730 43.24184 19028 ft 261 kts 51°
2026-05-07 20:38 8.84882 43.25601 19025 ft 260 kts 51°
2026-05-07 20:38 8.86031 43.27013 19025 ft 260 kts 51°
2026-05-07 20:38 8.87180 43.28426 19022 ft 260 kts 51°
2026-05-07 20:38 8.88326 43.29835 19021 ft 260 kts 51°
2026-05-07 20:39 8.89474 43.31247 19024 ft 260 kts 51°
2026-05-07 20:39 8.90622 43.32658 19024 ft 259 kts 51°
2026-05-07 20:39 8.91770 43.34070 19024 ft 260 kts 51°
2026-05-07 20:39 8.92915 43.35480 19027 ft 260 kts 51°
2026-05-07 20:40 8.94061 43.36890 19026 ft 259 kts 51°
2026-05-07 20:40 8.95207 43.38299 19027 ft 260 kts 51°
2026-05-07 20:40 8.96354 43.39710 19021 ft 260 kts 51°
2026-05-07 20:40 8.97487 43.41106 19027 ft 260 kts 51°
2026-05-07 20:41 8.98634 43.42517 19023 ft 260 kts 51°
2026-05-07 20:41 8.99783 43.43932 19022 ft 260 kts 51°
2026-05-07 20:41 9.00930 43.45344 19023 ft 260 kts 51°
2026-05-07 20:41 9.02081 43.46762 19027 ft 260 kts 51°
2026-05-07 20:42 9.03231 43.48177 19027 ft 260 kts 51°
2026-05-07 20:42 9.04381 43.49594 19026 ft 260 kts 51°
2026-05-07 20:42 9.05532 43.51011 19027 ft 261 kts 51°
2026-05-07 20:42 9.06682 43.52428 19025 ft 260 kts 51°
2026-05-07 20:43 9.07830 43.53842 19025 ft 260 kts 51°
2026-05-07 20:43 9.08977 43.55256 19022 ft 260 kts 51°
2026-05-07 20:43 9.10126 43.56671 19021 ft 260 kts 51°
2026-05-07 20:43 9.11273 43.58085 19026 ft 260 kts 51°
2026-05-07 20:44 9.12419 43.59497 19017 ft 260 kts 51°
2026-05-07 20:44 9.13565 43.60910 19026 ft 260 kts 51°
2026-05-07 20:44 9.14712 43.62324 19022 ft 260 kts 51°
2026-05-07 20:44 9.15857 43.63735 19025 ft 260 kts 51°
2026-05-07 20:45 9.17007 43.65154 19025 ft 260 kts 51°
2026-05-07 20:45 9.18142 43.66553 19025 ft 260 kts 51°
2026-05-07 20:45 9.19291 43.67971 19019 ft 260 kts 51°
2026-05-07 20:45 9.20439 43.69387 19013 ft 260 kts 51°
2026-05-07 20:46 9.21588 43.70804 19020 ft 260 kts 51°
2026-05-07 20:46 9.22737 43.72221 19020 ft 261 kts 51°
2026-05-07 20:46 9.23886 43.73639 19020 ft 261 kts 51°
2026-05-07 20:46 9.25036 43.75058 19019 ft 260 kts 51°
2026-05-07 20:47 9.26276 43.76378 19013 ft 258 kts 46°
2026-05-07 20:47 9.27533 43.77687 19009 ft 259 kts 47°
2026-05-07 20:47 9.28785 43.79006 19014 ft 260 kts 47°
2026-05-07 20:47 9.30045 43.80320 19006 ft 261 kts 47°
2026-05-07 20:48 9.31314 43.81636 19008 ft 261 kts 47°
2026-05-07 20:48 9.32582 43.82953 19012 ft 261 kts 47°
2026-05-07 20:48 9.33832 43.84255 19000 ft 261 kts 47°
2026-05-07 20:48 9.35115 43.85591 19007 ft 261 kts 47°
2026-05-07 20:49 9.36367 43.86893 19008 ft 261 kts 47°
2026-05-07 20:49 9.37633 43.88212 19007 ft 261 kts 47°
2026-05-07 20:49 9.38901 43.89531 19003 ft 261 kts 47°
2026-05-07 20:49 9.40171 43.90854 18997 ft 262 kts 47°
2026-05-07 20:50 9.41441 43.92176 18996 ft 262 kts 47°
2026-05-07 20:50 9.42708 43.93495 18992 ft 262 kts 47°
2026-05-07 20:50 9.43977 43.94817 18996 ft 262 kts 47°
2026-05-07 20:50 9.45248 43.96141 18996 ft 262 kts 47°
2026-05-07 20:51 9.46517 43.97463 18996 ft 262 kts 47°
2026-05-07 20:51 9.47783 43.98782 18994 ft 262 kts 47°
2026-05-07 20:51 9.49055 44.00107 18987 ft 261 kts 47°
2026-05-07 20:51 9.50323 44.01428 18991 ft 262 kts 47°
2026-05-07 20:52 9.51591 44.02750 18990 ft 262 kts 47°
2026-05-07 20:52 9.52861 44.04073 18989 ft 262 kts 46°
2026-05-07 20:52 9.54127 44.05393 18985 ft 261 kts 47°
2026-05-07 20:52 9.55388 44.06708 18986 ft 260 kts 47°
2026-05-07 20:53 9.56649 44.08023 18971 ft 261 kts 47°
2026-05-07 20:53 9.57893 44.09320 18965 ft 260 kts 47°
2026-05-07 20:53 9.59155 44.10637 18965 ft 260 kts 47°
2026-05-07 20:53 9.60415 44.11950 18966 ft 260 kts 47°
2026-05-07 20:54 9.61674 44.13263 18960 ft 260 kts 47°
2026-05-07 20:54 9.62932 44.14576 18960 ft 260 kts 47°
2026-05-07 20:54 9.64192 44.15891 18959 ft 260 kts 47°
2026-05-07 20:54 9.65449 44.17202 18960 ft 260 kts 47°
2026-05-07 20:55 9.66715 44.18524 18817 ft 265 kts 46°
2026-05-07 20:55 9.68021 44.19887 18492 ft 273 kts 46°
2026-05-07 20:55 9.69359 44.21284 18160 ft 278 kts 46°
2026-05-07 20:55 9.70708 44.22693 17783 ft 279 kts 46°
2026-05-07 20:56 9.72064 44.24108 17413 ft 280 kts 46°
2026-05-07 20:56 9.73421 44.25525 17043 ft 280 kts 46°
2026-05-07 20:56 9.74775 44.26940 16675 ft 280 kts 46°
2026-05-07 20:56 9.76126 44.28350 16303 ft 278 kts 46°
2026-05-07 20:57 9.77168 44.29956 15939 ft 275 kts 71°
2026-05-07 20:57 9.77440 44.31862 15587 ft 271 kts 83°
2026-05-07 20:57 9.78117 44.33620 15244 ft 272 kts 54°
2026-05-07 20:57 9.79385 44.35045 14906 ft 273 kts 45°
2026-05-07 20:58 9.80765 44.36374 14566 ft 275 kts 44°
2026-05-07 20:58 9.82192 44.37671 14227 ft 276 kts 42°
2026-05-07 20:58 9.83645 44.38942 13893 ft 277 kts 41°
2026-05-07 20:58 9.85042 44.40275 13514 ft 276 kts 47°
2026-05-07 20:59 9.86370 44.41670 13140 ft 275 kts 44°
2026-05-07 20:59 9.87794 44.42970 12768 ft 276 kts 41°
2026-05-07 20:59 9.89249 44.44254 12401 ft 279 kts 41°
2026-05-07 20:59 9.90708 44.45531 12042 ft 282 kts 41°
2026-05-07 21:00 9.92216 44.46851 11681 ft 284 kts 41°
2026-05-07 21:00 9.93716 44.48159 11303 ft 283 kts 41°
2026-05-07 21:00 9.95315 44.49259 10953 ft 281 kts 28°
2026-05-07 21:00 9.97080 44.50124 10604 ft 282 kts 25°
2026-05-07 21:01 9.98875 44.50926 10257 ft 281 kts 25°
2026-05-07 21:01 10.00679 44.51680 9916 ft 280 kts 24°
2026-05-07 21:01 10.02479 44.52413 9557 ft 277 kts 24°
2026-05-07 21:01 10.04271 44.53139 9154 ft 277 kts 24°
2026-05-07 21:02 10.06058 44.53866 8792 ft 275 kts 24°
2026-05-07 21:02 10.07727 44.54776 8420 ft 272 kts 37°
2026-05-07 21:02 10.09107 44.56068 8064 ft 269 kts 52°
2026-05-07 21:02 10.10222 44.57582 7712 ft 268 kts 56°
2026-05-07 21:03 10.11297 44.59125 7362 ft 267 kts 56°
2026-05-07 21:03 10.12373 44.60665 6988 ft 267 kts 56°
2026-05-07 21:03 10.13397 44.62231 6643 ft 266 kts 63°
2026-05-07 21:03 10.14143 44.63946 6301 ft 266 kts 70°
2026-05-07 21:04 10.14788 44.65687 5944 ft 267 kts 71°
2026-05-07 21:04 10.15417 44.67458 5590 ft 266 kts 71°
2026-05-07 21:04 10.16079 44.69201 5236 ft 264 kts 66°
2026-05-07 21:04 10.16974 44.70823 4889 ft 261 kts 55°
2026-05-07 21:05 10.18103 44.72136 4520 ft 234 kts 45°
2026-05-07 21:05 10.19238 44.73215 4149 ft 215 kts 44°
2026-05-07 21:05 10.20263 44.74258 3750 ft 202 kts 46°
2026-05-07 21:05 10.21189 44.75203 3688 ft 174 kts 42°
2026-05-07 21:06 10.22119 44.76082 3748 ft 197 kts 43°
2026-05-07 21:06 10.23142 44.77087 3946 ft 212 kts 45°
2026-05-07 21:06 10.24197 44.78193 3862 ft 216 kts 48°
2026-05-07 21:06 10.25146 44.79319 3677 ft 204 kts 49°
2026-05-07 21:07 10.26100 44.80321 3576 ft 195 kts 43°
2026-05-07 21:07 10.27093 44.81260 3420 ft 195 kts 44°
2026-05-07 21:07 10.28047 44.82244 3173 ft 195 kts 44°
2026-05-07 21:07 10.28962 44.83248 3004 ft 191 kts 50°
2026-05-07 21:08 10.29802 44.84269 2880 ft 186 kts 50°
2026-05-07 21:08 10.30636 44.85244 2712 ft 185 kts 47°
2026-05-07 21:08 10.31554 44.86193 2308 ft 190 kts 45°
2026-05-07 21:08 10.32479 44.87129 1969 ft 185 kts 47°
2026-05-07 21:09 10.33344 44.88053 1684 ft 170 kts 58°
2026-05-07 21:09 10.33972 44.88823 1536 ft 120 kts 53°
2026-05-07 21:09 10.34525 44.89400 1271 ft 109 kts 49°
2026-05-07 21:09 10.35042 44.89960 1031 ft 104 kts 50°
2026-05-07 21:10 10.35520 44.90462 791 ft 94 kts 49°
2026-05-07 21:10 10.35954 44.90968 661 ft 96 kts 55°
2026-05-07 21:10 10.36396 44.91417 504 ft 84 kts 46°
2026-05-07 21:10 10.36409 44.91429 497 ft 84 kts 47°
2026-05-07 21:11 10.36742 44.91797 262 ft 0 kts 33°
2026-05-07 21:12 10.36374 44.91376 331 ft 0 kts 51°
2026-05-07 21:12 10.36329 44.91319 171 ft 0 kts 51°
2026-05-07 21:12 10.36232 44.91198 244 ft 0 kts 50°
2026-05-07 21:13 10.35464 44.90424 1001 ft 176 kts 46°
2026-05-07 21:13 10.36169 44.91182 650 ft 127 kts 46°
2026-05-07 21:13 10.36715 44.91760 396 ft 101 kts 47°
2026-05-07 21:13 10.37188 44.92270 235 ft 101 kts 47°
2026-05-07 21:14 10.37683 44.92803 135 ft 99 kts 48°
2026-05-07 21:14 10.38099 44.93250 125 ft 75 kts 46°
2026-05-07 21:14 10.38412 44.93584 129 ft 59 kts 46°
2026-05-07 21:14 10.38691 44.93881 129 ft 54 kts 47°
2026-05-07 21:15 10.38884 44.94092 127 ft 22 kts 46°
2026-05-07 21:15 10.38961 44.94187 127 ft 11 kts 95°
2026-05-07 21:15 10.38894 44.94259 126 ft 10 kts 139°
2026-05-07 21:15 10.38827 44.94323 124 ft 15 kts 136°
2026-05-07 21:16 10.38774 44.94375 124 ft 13 kts 135°
2026-05-07 21:16 10.38715 44.94449 126 ft 11 kts 83°
2026-05-07 21:16 10.38736 44.94461 124 ft 0 kts 312°